Location: Poughquag
(41.6090°N, 73.6820°W)
Time: 12:10:12
(UTC-05:00)

Vanguard 3 - Pass Details

Date: 05 December 2023
Orbit: 508 x 3239 km, 33.4° (Epoch: 03 March)

Event Time Altitude Azimuth Distance (km) Brightness Sun altitude
Rises 18:00:33 0° 193° (SSW) 7,079 12.3 -17.4°
Reaches altitude 10° 18:08:49 10° 174° (S) 5,718 11.5 -18.9°
Maximum altitude 18:16:34 15° 147° (SSE) 4,788 10.8 -20.3°
Enters shadow 18:22:11 11° 121° (ESE) 4,615 10.6 -21.3°
